User: anonymous   Login
Location: College Park
(38.9810°N, 76.9370°W)
Time: 02:39:33
(UTC-04:00)
Language:

Envisat - Orbit

View from above orbital plane
View from above orbital plane
View from above satellite
View from above satellite

Ground track
Ground track

The orbit data is extracted from the following two-line orbital elements,

1 27386U 02009A   18169.70678057 -.00000018  00000-0  77581-5 0  9995
2 27386  98.1839 203.6963 0001234  93.3542  14.8196 14.37924110853749
Epoch (UTC): 18 June 2018 16:57:45
Eccentricity: 0.0001234
inclination: 98.1839°
perigee height: 764 km
apogee height: 766 km
right ascension of ascending node: 203.6963°
argument of perigee: 93.3542°
revolutions per day: 14.37924110
mean anomaly at epoch: 14.8196°
orbit number at epoch: 85374

The dashed part of the orbit path shows where the satellite is in the earth's shadow,  

DLR